Theta_e
315 315 315 315 316 316 316 316 317 317 316 316 315 314 314 313 312 312 313 314 318 317 317 321 322 322 324 328 349 348 355 362 359 359 360 358 359 354 351 354 354 353 354 353 352
314 314 315 315 315 315 315 315 316 316 316 316 315 314 314 312 314 316 313 313 314 317 319 322 324 324 328 331 339 346 353 355 352 356 357 357 358 358 354 353 356 357 353 353 352
315 314 315 315 315 315 315 316 316 315 315 314 315 314 313 312 316 313 320 320 314 313 315 320 321 327 331 330 340 344 350 349 351 351 353 355 355 356 354 357 357 359 357 353 351
314 314 314 313 314 315 315 314 315 315 314 314 314 315 313 315 314 316 319 321 320 313 315 321 324 332 332 333 331 344 345 344 347 352 354 357 353 354 353 353 347 354 354 353 353
314 314 314 313 314 314 315 315 314 313 313 314 314 315 317 315 314 314 322 321 320 314 318 322 325 330 333 330 332 335 338 343 345 353 354 353 354 353 352 350 350 353 353 354 354
314 313 314 313 313 314 314 314 313 313 313 313 315 316 318 316 311 320 319 321 318 316 319 321 327 327 329 330 333 333 335 336 349 354 352 354 354 352 352 354 354 354 354 354 355
313 313 313 313 313 314 314 313 313 313 313 313 318 320 320 319 318 321 318 319 315 318 321 319 323 326 326 331 330 332 339 338 343 353 354 353 356 356 353 357 358 357 355 355 354
313 313 313 312 312 312 313 313 313 312 312 315 318 321 319 318 315 316 317 319 316 318 319 319 321 324 327 328 334 337 338 341 338 350 352 351 351 356 355 359 361 359 358 356 355
313 313 312 312 311 311 313 314 314 312 314 316 319 318 320 319 320 317 317 319 319 320 320 320 323 327 330 334 339 337 340 339 339 349 355 353 353 353 355 357 361 360 359 358 357
312 312 312 311 311 311 313 314 315 315 317 319 321 322 320 322 321 319 318 321 323 322 322 324 327 332 332 336 341 338 338 337 339 340 350 355 351 354 355 356 358 359 358 358 358
312 312 311 311 311 310 314 315 316 318 320 318 318 318 320 320 319 317 319 319 323 325 326 326 336 338 333 333 334 334 335 336 337 341 349 353 354 357 355 357 360 360 360 360 358
312 311 311 311 310 311 311 314 315 315 321 318 318 318 318 318 324 319 317 321 322 325 326 330 339 332 329 330 332 333 334 336 338 345 347 356 357 355 357 357 356 359 360 358 357
311 311 310 310 310 311 311 312 317 316 320 319 320 321 321 321 324 322 318 319 321 325 327 332 336 329 330 331 331 332 333 335 334 335 353 356 357 360 357 358 358 356 354 356 356
311 310 310 310 311 312 314 314 317 317 321 321 324 324 322 323 325 322 318 321 321 324 326 331 327 332 332 332 331 333 332 332 332 336 341 349 348 356 356 357 360 360 359 358 358
310 309 309 310 309 313 316 317 314 314 319 320 325 322 321 324 321 321 314 320 323 323 326 329 329 331 332 332 330 332 330 330 332 337 342 348 355 349 351 353 355 360 361 359 354
310 309 310 310 309 316 317 317 314 323 319 326 326 327 325 322 317 316 318 320 321 323 324 327 323 330 335 330 328 326 328 329 331 337 340 343 350 341 346 351 356 358 358 354 353
310 310 309 310 315 315 317 316 324 322 321 329 327 326 325 324 318 318 318 321 323 324 326 324 325 321 324 326 325 328 328 333 338 337 336 345 349 346 345 343 348 351 357 352 352
310 313 311 311 314 315 314 324 322 320 326 325 324 325 325 323 321 318 318 321 319 323 323 326 326 325 324 327 330 328 328 331 337 337 336 347 349 342 341 343 342 346 353 350 350
313 313 313 315 315 315 321 325 323 325 326 326 325 328 326 321 321 319 319 320 322 321 324 326 325 322 323 325 327 328 330 327 333 335 338 340 344 340 341 342 345 347 352 351 349
314 314 316 317 316 315 324 324 325 323 325 322 323 325 328 323 321 321 320 320 322 320 322 323 326 323 324 324 325 327 327 332 334 338 337 338 344 342 344 345 345 346 350 351 348
316 322 316 316 315 320 325 325 324 323 323 320 321 321 326 324 322 321 321 318 320 319 320 322 324 325 323 326 327 330 331 332 333 335 335 337 336 341 347 345 345 345 347 351 348
319 324 316 315 323 319 325 323 320 323 320 321 321 321 327 326 322 321 322 321 318 320 321 322 323 325 325 324 321 324 326 330 328 334 338 340 336 338 339 340 342 344 345 347 348
323 321 316 314 324 323 321 322 322 322 323 325 323 324 325 331 332 321 320 324 317 320 322 321 323 325 325 324 321 324 325 327 329 331 337 334 332 338 342 343 344 345 344 345 347
326 327 321 318 316 321 324 326 326 324 324 325 326 329 330 336 337 336 338 336 328 321 331 324 322 325 325 326 327 329 329 328 331 335 335 335 333 333 337 342 346 347 347 346 346
326 328 322 328 325 322 322 324 327 331 328 332 337 338 335 338 339 339 338 336 335 333 325 322 324 325 325 326 325 327 329 330 332 333 334 333 336 336 340 341 346 348 348 349 349
328 329 326 329 328 326 323 329 329 331 337 339 338 338 337 338 338 339 338 338 338 335 324 320 327 325 325 324 324 325 326 329 330 332 332 335 339 339 344 342 346 348 349 349 350
312 317 325 325 333 336 332 332 334 334 336 336 337 337 338 338 336 337 335 335 337 339 334 326 324 326 327 325 324 327 327 330 334 338 336 338 338 343 345 345 344 348 349 350 350
Wind_Speed
15 14 14 13 13 13 13 13 13 13 12 12 11 10 10 12 14 11 6 7 1 9 6 7 3 8 3 1 1 1 3 3 6 7 1 4 5 2 3 4 3 2 3 10 29
16 16 14 14 13 13 14 14 13 14 13 13 10 8 8 11 11 10 13 12 9 1 1 5 5 8 2 2 0 1 1 4 3 6 4 9 7 5 4 5 3 7 11 25 28
15 15 16 15 15 14 14 14 14 15 15 13 8 5 6 9 4 3 4 3 18 13 5 2 5 3 2 0 2 1 1 2 2 7 4 9 7 5 5 5 7 10 17 21 25
16 16 16 16 16 16 15 15 15 16 15 12 6 4 4 3 2 1 9 8 9 18 7 2 1 3 4 4 3 2 3 5 2 5 5 7 5 4 8 1 1 13 20 21 21
17 16 16 16 17 17 16 16 16 17 15 11 3 3 2 1 6 4 9 3 12 19 9 4 2 1 3 5 5 2 2 1 4 9 5 5 6 4 7 4 5 15 18 19 18
17 17 17 17 17 18 17 17 17 17 14 6 0 3 0 4 2 3 5 4 12 13 8 4 2 1 1 2 2 5 6 6 4 7 9 7 3 4 2 6 11 15 16 16 18
18 18 18 18 18 18 18 15 15 14 9 2 4 3 2 10 3 4 5 3 19 8 6 5 3 1 0 3 3 5 4 4 1 8 6 9 3 10 5 8 11 12 13 15 16
18 19 18 18 19 19 17 13 10 7 2 7 4 1 6 3 5 7 4 7 11 5 3 3 3 2 1 5 1 2 3 2 2 7 3 10 9 7 11 12 11 12 12 14 16
18 19 18 19 20 20 13 5 5 1 7 7 2 1 7 4 4 5 9 7 8 4 4 4 2 2 1 2 3 7 2 4 4 8 4 11 5 0 10 10 11 12 12 12 12
19 19 18 20 19 19 6 2 5 6 5 2 2 4 6 1 0 5 11 13 5 8 4 2 3 2 1 1 3 2 3 4 4 2 8 10 5 3 10 12 11 11 11 12 12
19 19 19 20 18 16 3 1 2 3 4 6 2 3 3 7 1 2 7 9 5 4 5 3 6 9 5 6 6 3 1 5 3 2 3 7 8 8 10 11 11 12 12 13 13
19 19 20 21 17 13 5 3 1 2 5 11 8 8 6 3 1 3 9 6 5 10 6 6 12 5 6 5 3 0 6 4 0 8 1 3 6 6 11 13 14 13 12 14 12
20 19 22 20 18 5 5 5 3 2 3 3 4 5 5 8 4 7 10 5 6 7 7 11 9 12 5 3 3 3 5 2 5 9 2 4 5 6 6 11 10 10 10 11 12
22 21 21 19 4 1 5 6 8 8 2 3 4 3 5 5 5 4 11 7 3 10 7 5 5 13 7 5 1 6 2 5 7 3 4 2 4 5 7 12 10 10 11 11 10
24 23 17 8 5 4 2 4 8 4 3 5 4 1 3 7 8 6 3 4 9 6 6 8 10 10 8 6 3 4 2 6 5 3 3 4 4 3 2 10 14 13 12 12 9
27 24 14 7 7 4 5 1 3 3 3 4 5 7 8 3 3 5 5 4 4 5 2 4 1 5 14 5 7 6 3 3 1 1 4 1 4 7 5 6 2 11 13 11 9
33 23 11 7 2 6 2 4 3 3 1 5 4 7 10 7 5 8 13 13 8 9 9 7 7 3 3 5 3 3 3 3 4 3 6 2 3 8 8 8 7 6 14 12 10
28 8 6 11 7 1 4 4 4 1 2 1 2 8 9 9 3 4 13 13 2 3 5 11 11 11 8 11 5 6 5 4 5 5 3 1 5 6 5 7 7 6 11 12 11
11 1 2 1 9 1 3 4 2 3 3 4 4 7 5 4 4 6 11 16 13 8 6 10 7 3 7 6 9 6 5 1 3 1 3 2 6 11 8 9 6 6 10 14 13
1 1 4 1 12 2 3 2 1 2 4 3 2 2 6 12 8 9 10 10 13 13 6 5 6 5 4 5 4 3 7 3 2 4 10 5 5 9 9 8 12 12 12 15 13
2 1 9 7 6 2 5 3 3 4 4 3 1 1 3 7 7 9 10 4 13 13 9 7 2 5 3 8 11 4 4 2 1 2 6 8 7 7 11 10 11 15 13 16 14
1 2 3 3 2 1 3 2 1 3 3 5 3 5 3 5 6 8 13 5 9 16 13 11 6 9 10 1 2 1 4 7 4 4 2 4 9 3 6 7 9 10 14 12 14
1 2 2 3 3 3 2 2 3 3 3 2 3 5 2 3 3 6 7 2 9 14 17 10 7 5 4 5 3 6 5 6 2 1 8 8 12 3 1 5 7 8 11 12 14
1 3 2 1 1 1 1 1 3 3 5 4 4 2 2 2 1 5 4 2 2 9 6 15 6 11 11 9 4 6 7 8 8 4 2 11 16 15 7 7 7 9 10 14 15
2 2 2 3 3 3 2 1 3 2 4 3 2 5 4 3 3 3 1 4 4 2 6 10 11 12 16 11 7 5 7 10 11 6 7 7 8 12 5 7 11 9 9 13 15
2 2 1 1 1 4 3 3 5 3 3 2 4 0 5 4 2 5 3 3 2 2 6 4 8 8 11 13 13 15 11 9 11 6 13 11 13 4 3 2 7 11 12 12 14
4 1 2 1 2 3 3 3 1 2 1 2 3 1 1 1 2 3 2 3 2 3 5 6 6 6 8 7 7 8 16 15 7 8 9 9 6 2 4 5 9 12 12 12 13
Wind_Direction
354 353 349 347 342 340 338 335 332 333 327 321 310 307 312 314 314 298 260 238 99 252 265 309 306 358 107 106 354 148 93 144 149 172 184 202 186 150 132 131 130 98 124 134 150
352 349 345 345 342 338 335 331 331 331 325 323 314 312 320 326 321 261 260 250 237 176 60 14 346 356 76 87 198 24 115 201 193 175 196 182 191 162 176 184 166 89 94 136 148
350 346 344 342 340 335 331 328 328 328 328 323 316 323 329 339 300 261 333 290 228 222 237 339 327 2 12 46 102 46 62 165 191 206 219 168 193 177 188 207 206 181 148 153 155
349 346 344 339 334 332 330 326 325 325 324 320 318 331 349 358 207 309 324 278 222 196 184 188 13 354 352 11 19 329 191 251 311 195 185 182 154 194 211 165 248 178 161 160 167
347 346 343 338 333 330 326 322 321 323 321 316 309 354 72 230 251 321 1 149 164 164 174 179 146 114 358 339 332 214 350 159 258 174 204 154 187 201 245 274 102 149 162 171 173
346 344 342 338 332 328 323 319 322 317 314 305 111 51 46 262 225 146 36 79 155 155 167 170 142 112 62 308 308 313 297 277 182 174 181 190 209 211 116 126 133 155 168 175 184
345 343 341 337 332 328 323 320 319 312 302 187 126 97 258 246 187 181 64 101 151 158 155 186 163 185 221 295 322 297 348 129 150 179 175 153 225 227 139 156 156 168 173 182 191
345 342 340 337 333 327 324 324 320 313 182 149 135 141 253 227 260 236 176 129 174 164 122 175 182 120 292 294 198 54 53 21 358 164 173 193 259 195 163 175 174 182 184 190 198
342 341 338 337 333 329 332 335 1 106 135 124 113 232 267 274 248 193 175 154 153 145 123 123 140 60 355 3 83 32 49 8 355 188 149 203 300 138 177 194 189 196 199 205 204
338 338 337 336 334 331 347 79 105 107 112 120 260 275 251 119 74 147 155 142 130 133 124 171 88 113 46 331 160 38 15 349 304 17 207 203 237 204 195 208 212 211 211 214 214
336 336 334 335 333 333 9 130 192 186 216 217 189 276 331 326 103 139 157 138 117 133 170 187 181 205 146 91 128 114 331 309 284 81 173 210 241 222 203 215 220 218 216 225 222
334 332 332 329 326 317 293 236 80 30 286 230 244 278 267 309 327 127 158 156 158 168 149 169 196 168 150 149 135 74 311 334 311 56 345 222 230 235 218 227 226 227 225 231 224
333 331 330 324 315 297 212 218 174 235 277 272 190 220 241 177 210 187 179 138 146 158 179 196 172 154 165 145 343 317 300 310 338 338 93 169 256 242 234 241 236 232 245 233 232
332 329 327 322 305 245 241 183 275 185 300 189 201 225 166 186 202 187 181 154 147 183 162 181 151 198 216 254 298 297 238 323 302 268 268 239 284 255 237 251 239 233 218 223 219
330 327 322 316 299 225 192 356 132 188 216 137 155 85 149 197 130 185 185 147 168 159 191 166 170 163 201 231 178 261 225 288 318 219 233 203 252 268 302 269 247 216 212 212 203
329 322 310 266 220 214 194 276 170 197 215 148 133 169 164 196 127 119 168 102 113 131 177 147 184 194 232 191 193 279 272 42 112 212 256 169 253 274 248 247 283 208 201 199 187
330 316 240 189 189 165 249 167 175 216 339 152 161 166 176 168 125 156 173 174 173 174 181 186 179 151 178 208 175 200 250 258 223 218 279 80 222 258 261 256 250 233 202 193 181
331 338 197 202 195 217 161 201 194 143 293 4 123 156 186 166 116 139 163 180 131 143 151 188 210 210 182 220 213 189 233 247 259 245 325 188 237 249 293 313 247 229 210 188 183
332 62 105 114 196 156 206 206 190 173 344 334 126 155 169 173 179 162 186 195 192 187 181 181 221 182 205 183 192 160 203 51 141 115 255 273 265 279 268 250 218 211 195 190 187
277 172 25 185 171 187 204 251 241 238 323 324 118 213 168 177 176 188 177 189 201 202 204 177 203 202 151 171 69 257 134 194 214 243 269 254 273 267 277 260 222 216 203 193 187
149 130 359 135 144 205 202 234 264 252 268 348 307 238 149 170 186 185 190 191 206 185 210 174 273 149 197 202 188 148 185 93 188 247 277 287 279 224 255 266 245 222 206 194 184
288 98 138 12 182 355 201 207 275 267 249 266 254 244 213 166 174 196 204 240 191 158 181 188 209 234 230 210 3 294 274 210 245 211 239 306 271 200 265 287 267 237 210 190 191
69 98 172 317 213 187 225 255 268 267 263 235 268 227 190 185 174 209 191 50 161 170 173 170 213 203 214 189 132 212 190 215 202 215 229 256 264 125 256 258 240 221 203 191 195
240 135 149 151 6 191 175 261 264 237 249 259 281 260 225 201 157 188 206 109 107 210 142 167 179 216 226 227 197 196 187 188 218 210 242 244 273 288 280 255 217 205 196 197 197
357 80 10 190 204 190 239 282 240 272 216 230 242 233 206 189 182 174 152 135 95 49 151 187 215 204 233 230 218 226 184 186 213 218 236 304 228 262 315 278 229 206 194 191 186
3 345 356 103 150 159 191 235 233 254 251 192 250 198 191 216 249 171 161 219 158 122 156 188 215 202 240 232 228 244 247 238 235 213 248 258 272 279 301 315 210 200 201 204 195
1 307 283 112 167 204 214 228 217 3 191 319 340 298 123 97 350 37 69 77 81 182 152 175 187 175 240 213 184 240 235 225 210 208 231 227 273 325 281 234 210 211 211 210 197